Time,TemperatureF,DewpointF,PressureIn,WindDirection,WindDirectionDegrees,WindSpeedMPH,WindSpeedGustMPH,Humidity,HourlyPrecipIn,Conditions,Clouds,dailyrainin,SoftwareType,DateUTC
2013-08-29 00:01:00,59.2,52.7,29.83,SW,217,0.0,0.0,79,0.00,,CLR,0.16,VWS V14.01,2013-08-29 06:01:00,
2013-08-29 00:06:00,58.9,52.4,29.83,SW,217,0.0,0.0,79,0.00,,CLR,0.00,VWS V14.01,2013-08-29 06:06:00,
2013-08-29 00:11:00,58.7,52.6,29.83,SW,217,0.0,0.0,80,0.00,,CLR,0.00,VWS V14.01,2013-08-29 06:11:00,
2013-08-29 00:16:00,58.6,52.5,29.84,SW,217,0.0,0.0,80,0.00,,CLR,0.00,VWS V14.01,2013-08-29 06:16:00,
2013-08-29 00:21:00,58.3,52.2,29.84,SW,217,0.0,0.0,80,0.00,,CLR,0.00,VWS V14.01,2013-08-29 06:21:00,
2013-08-29 00:26:00,58.1,52.0,29.84,SW,217,0.0,0.0,80,0.00,,CLR,0.00,VWS V14.01,2013-08-29 06:26:00,
2013-08-29 00:31:00,58.0,51.9,29.86,SW,217,0.0,0.0,80,0.00,,CLR,0.00,VWS V14.01,2013-08-29 06:31:00,
2013-08-29 00:36:00,58.0,52.2,29.86,SW,217,0.0,0.0,81,0.00,,CLR,0.00,VWS V14.01,2013-08-29 06:36:00,
2013-08-29 00:41:00,57.8,52.3,29.86,SW,217,0.0,0.0,82,0.00,,CLR,0.00,VWS V14.01,2013-08-29 06:41:00,
2013-08-29 00:46:00,57.8,52.0,29.86,SW,217,0.0,0.0,81,0.00,,CLR,0.00,VWS V14.01,2013-08-29 06:46:00,
2013-08-29 00:51:00,57.6,51.8,29.86,SW,217,0.0,0.0,81,0.00,,CLR,0.00,VWS V14.01,2013-08-29 06:51:00,
2013-08-29 00:56:00,57.5,51.4,29.86,SW,217,0.0,0.0,80,0.00,,CLR,0.00,VWS V14.01,2013-08-29 06:56:00,
2013-08-29 01:01:00,57.5,52.1,29.86,SW,217,0.0,0.0,82,0.00,,CLR,0.00,VWS V14.01,2013-08-29 07:01:00,
2013-08-29 01:06:00,57.3,51.2,29.86,SW,217,0.0,0.0,80,0.00,,CLR,0.00,VWS V14.01,2013-08-29 07:06:00,
2013-08-29 01:11:00,57.3,51.9,29.86,SW,217,0.0,0.0,82,0.00,,CLR,0.00,VWS V14.01,2013-08-29 07:11:00,
2013-08-29 01:16:00,57.2,51.4,29.91,SW,217,0.0,0.0,81,0.00,,CLR,0.00,VWS V14.01,2013-08-29 07:16:00,
2013-08-29 01:21:00,57.0,51.6,29.91,SW,217,0.0,0.0,82,0.00,,CLR,0.00,VWS V14.01,2013-08-29 07:21:00,
2013-08-29 01:26:00,57.0,51.2,29.91,SW,217,0.0,0.0,81,0.00,,CLR,0.00,VWS V14.01,2013-08-29 07:26:00,
2013-08-29 01:32:00,56.9,51.1,29.91,SW,217,0.0,0.0,81,0.00,,CLR,0.00,VWS V14.01,2013-08-29 07:32:00,
2013-08-29 01:37:00,56.7,51.6,29.91,SW,217,0.0,0.0,83,0.00,,CLR,0.00,VWS V14.01,2013-08-29 07:37:00,
2013-08-29 01:42:00,56.7,51.3,29.91,SW,217,0.0,0.0,82,0.00,,CLR,0.00,VWS V14.01,2013-08-29 07:42:00,
2013-08-29 01:47:00,56.6,51.2,29.91,SW,217,0.0,0.0,82,0.00,,CLR,0.00,VWS V14.01,2013-08-29 07:47:00,
2013-08-29 01:52:00,56.6,51.5,29.91,SW,217,0.0,0.0,83,0.00,,CLR,0.00,VWS V14.01,2013-08-29 07:52:00,
2013-08-29 01:57:00,56.6,51.2,29.91,SW,217,0.0,0.0,82,0.00,,CLR,0.00,VWS V14.01,2013-08-29 07:57:00,
2013-08-29 02:02:00,56.5,51.4,29.91,SW,217,0.0,0.0,83,0.00,,CLR,0.00,VWS V14.01,2013-08-29 08:02:00,
2013-08-29 02:07:00,56.5,51.7,29.91,SW,217,0.0,0.0,84,0.00,,CLR,0.00,VWS V14.01,2013-08-29 08:07:00,
2013-08-29 02:12:00,56.5,51.7,29.91,SW,217,0.0,0.0,84,0.00,,CLR,0.00,VWS V14.01,2013-08-29 08:12:00,
2013-08-29 02:17:00,56.5,51.4,29.95,SW,217,0.0,0.0,83,0.00,,CLR,0.00,VWS V14.01,2013-08-29 08:17:00,
2013-08-29 02:22:00,56.3,50.9,29.95,SW,217,0.0,0.0,82,0.00,,CLR,0.00,VWS V14.01,2013-08-29 08:22:00,
2013-08-29 02:27:00,56.3,51.5,29.95,SW,217,0.0,0.0,84,0.00,,CLR,0.00,VWS V14.01,2013-08-29 08:27:00,
2013-08-29 02:32:00,56.3,51.5,29.95,SW,217,0.0,0.0,84,0.00,,CLR,0.00,VWS V14.01,2013-08-29 08:32:00,
2013-08-29 02:37:00,56.2,51.4,29.95,SW,217,0.0,0.0,84,0.00,,CLR,0.00,VWS V14.01,2013-08-29 08:37:00,
2013-08-29 02:42:00,56.2,51.4,29.95,SW,217,0.0,0.0,84,0.00,,CLR,0.00,VWS V14.01,2013-08-29 08:42:00,
2013-08-29 02:47:00,56.2,51.4,29.95,SW,217,0.0,0.0,84,0.00,,CLR,0.00,VWS V14.01,2013-08-29 08:47:00,
2013-08-29 02:52:00,56.2,51.8,29.95,SW,217,0.0,0.0,85,0.00,,CLR,0.00,VWS V14.01,2013-08-29 08:52:00,
2013-08-29 02:57:00,56.3,51.5,29.95,SW,217,0.0,0.0,84,0.00,,CLR,0.00,VWS V14.01,2013-08-29 08:57:00,
2013-08-29 03:02:00,56.3,51.2,29.96,SW,217,0.0,0.0,83,0.00,,CLR,0.00,VWS V14.01,2013-08-29 09:02:00,
2013-08-29 03:08:00,56.2,50.8,29.96,SW,217,0.0,0.0,82,0.00,,CLR,0.00,VWS V14.01,2013-08-29 09:08:00,
2013-08-29 03:13:00,56.0,50.9,29.96,SW,217,0.0,0.0,83,0.00,,CLR,0.00,VWS V14.01,2013-08-29 09:13:00,
2013-08-29 03:18:00,55.9,50.8,29.94,SW,217,0.0,0.0,83,0.00,,CLR,0.00,VWS V14.01,2013-08-29 09:18:00,
2013-08-29 03:23:00,55.9,51.1,29.94,SW,217,0.0,0.0,84,0.00,,CLR,0.00,VWS V14.01,2013-08-29 09:23:00,
2013-08-29 03:28:00,55.7,50.6,29.94,SW,217,0.0,0.0,83,0.00,,CLR,0.00,VWS V14.01,2013-08-29 09:28:00,
2013-08-29 03:33:00,55.7,50.3,29.94,SW,217,0.0,0.0,82,0.00,,CLR,0.00,VWS V14.01,2013-08-29 09:33:00,
2013-08-29 03:38:00,55.6,50.2,29.94,SW,217,0.0,0.0,82,0.00,,CLR,0.00,VWS V14.01,2013-08-29 09:38:00,
2013-08-29 03:43:00,55.6,50.5,29.94,SW,217,0.0,0.0,83,0.00,,CLR,0.00,VWS V14.01,2013-08-29 09:43:00,
2013-08-29 03:48:00,55.6,50.2,29.94,SW,217,0.0,0.0,82,0.00,,CLR,0.00,VWS V14.01,2013-08-29 09:48:00,
2013-08-29 03:53:00,55.4,50.0,29.94,SW,217,0.0,0.0,82,0.00,,CLR,0.00,VWS V14.01,2013-08-29 09:53:00,
2013-08-29 03:58:00,55.3,50.2,29.94,SW,217,0.0,0.0,83,0.00,,CLR,0.00,VWS V14.01,2013-08-29 09:58:00,
2013-08-29 04:03:00,55.3,49.9,29.95,SW,217,0.0,0.0,82,0.00,,CLR,0.00,VWS V14.01,2013-08-29 10:03:00,
2013-08-29 04:08:00,55.1,50.0,29.95,SW,217,0.0,0.0,83,0.00,,CLR,0.00,VWS V14.01,2013-08-29 10:08:00,
2013-08-29 04:13:00,55.0,49.6,29.95,SW,217,0.0,0.0,82,0.00,,CLR,0.00,VWS V14.01,2013-08-29 10:13:00,
2013-08-29 04:18:00,55.0,49.6,29.93,SW,217,0.0,0.0,82,0.00,,CLR,0.00,VWS V14.01,2013-08-29 10:18:00,
2013-08-29 04:23:00,54.8,49.7,29.93,SW,217,0.0,0.0,83,0.00,,CLR,0.00,VWS V14.01,2013-08-29 10:23:00,
2013-08-29 04:28:00,54.8,49.7,29.93,SW,217,0.0,0.0,83,0.00,,CLR,0.00,VWS V14.01,2013-08-29 10:28:00,
2013-08-29 04:34:00,54.7,50.0,29.93,SW,217,0.0,0.0,84,0.00,,CLR,0.00,VWS V14.01,2013-08-29 10:34:00,
2013-08-29 04:39:00,54.7,50.3,29.93,SW,217,0.0,0.0,85,0.00,,CLR,0.00,VWS V14.01,2013-08-29 10:39:00,
2013-08-29 04:44:00,54.7,50.0,29.93,SW,217,0.0,0.0,84,0.00,,CLR,0.00,VWS V14.01,2013-08-29 10:44:00,
2013-08-29 04:49:00,54.5,49.5,29.93,SW,217,0.0,0.0,83,0.00,,CLR,0.00,VWS V14.01,2013-08-29 10:49:00,
2013-08-29 04:54:00,54.7,50.3,29.93,SW,217,0.0,0.0,85,0.00,,CLR,0.00,VWS V14.01,2013-08-29 10:54:00,
2013-08-29 04:59:00,54.7,50.6,29.93,SW,217,0.0,0.0,86,0.00,,CLR,0.00,VWS V14.01,2013-08-29 10:59:00,
2013-08-29 05:04:00,54.7,50.6,29.93,SW,217,0.0,0.0,86,0.00,,CLR,0.00,VWS V14.01,2013-08-29 11:04:00,
2013-08-29 05:09:00,54.8,50.4,29.93,SW,217,0.0,0.0,85,0.00,,CLR,0.00,VWS V14.01,2013-08-29 11:09:00,
2013-08-29 05:14:00,54.7,50.0,29.93,SW,217,0.0,0.0,84,0.00,,CLR,0.00,VWS V14.01,2013-08-29 11:14:00,
2013-08-29 05:19:00,54.5,49.8,29.95,SW,217,0.0,0.0,84,0.00,,CLR,0.00,VWS V14.01,2013-08-29 11:19:00,
2013-08-29 05:24:00,54.4,50.0,29.95,SW,217,0.0,0.0,85,0.00,,CLR,0.00,VWS V14.01,2013-08-29 11:24:00,
2013-08-29 05:29:00,54.2,49.5,29.95,SW,217,0.0,0.0,84,0.00,,CLR,0.00,VWS V14.01,2013-08-29 11:29:00,
2013-08-29 05:34:00,54.1,49.4,29.96,SW,217,0.0,0.0,84,0.00,,CLR,0.00,VWS V14.01,2013-08-29 11:34:00,
2013-08-29 05:39:00,53.9,48.9,29.96,SW,217,0.0,0.0,83,0.00,,CLR,0.00,VWS V14.01,2013-08-29 11:39:00,
2013-08-29 05:44:00,53.9,49.2,29.96,SW,217,0.0,0.0,84,0.00,,CLR,0.00,VWS V14.01,2013-08-29 11:44:00,
2013-08-29 05:49:00,53.8,49.1,29.96,SW,217,0.0,0.0,84,0.00,,CLR,0.00,VWS V14.01,2013-08-29 11:49:00,
2013-08-29 05:54:00,53.8,49.1,29.96,SW,217,0.0,0.0,84,0.00,,CLR,0.00,VWS V14.01,2013-08-29 11:54:00,
2013-08-29 05:59:00,53.6,48.6,29.96,SW,217,0.0,0.0,83,0.00,,CLR,0.00,VWS V14.01,2013-08-29 11:59:00,
2013-08-29 06:04:00,53.6,48.9,29.96,SW,217,0.0,0.0,84,0.00,,CLR,0.00,VWS V14.01,2013-08-29 12:04:00,
2013-08-29 06:09:00,53.5,48.5,29.96,SW,217,0.0,0.0,83,0.00,,CLR,0.00,VWS V14.01,2013-08-29 12:09:00,
2013-08-29 06:15:00,53.5,49.1,29.96,SW,217,0.0,0.0,85,0.00,,CLR,0.00,VWS V14.01,2013-08-29 12:15:00,
2013-08-29 06:20:00,53.3,48.3,29.97,SW,217,0.0,0.0,83,0.00,,CLR,0.00,VWS V14.01,2013-08-29 12:20:00,
2013-08-29 06:25:00,53.2,48.5,29.97,SW,217,0.0,0.0,84,0.00,,CLR,0.00,VWS V14.01,2013-08-29 12:25:00,
2013-08-29 06:30:00,53.1,48.4,29.97,SW,217,0.0,0.0,84,0.00,,CLR,0.00,VWS V14.01,2013-08-29 12:30:00,
2013-08-29 06:35:00,52.9,48.8,29.97,SW,217,0.0,0.0,86,0.00,,CLR,0.00,VWS V14.01,2013-08-29 12:35:00,
2013-08-29 06:40:00,52.9,48.8,29.97,SW,217,0.0,0.0,86,0.00,,CLR,0.00,VWS V14.01,2013-08-29 12:40:00,
2013-08-29 06:45:00,52.9,48.8,29.97,SW,217,0.0,0.0,86,0.00,,CLR,0.00,VWS V14.01,2013-08-29 12:45:00,
2013-08-29 06:50:00,52.8,48.7,29.97,SW,217,0.0,0.0,86,0.00,,CLR,0.00,VWS V14.01,2013-08-29 12:50:00,
2013-08-29 06:55:00,52.8,48.7,29.97,SW,217,0.0,0.0,86,0.00,,CLR,0.00,VWS V14.01,2013-08-29 12:55:00,
2013-08-29 07:00:00,52.8,48.7,29.97,SW,217,0.0,0.0,86,0.00,,CLR,0.00,VWS V14.01,2013-08-29 13:00:00,
2013-08-29 07:05:00,52.6,48.5,29.98,SW,217,0.0,0.0,86,0.00,,CLR,0.00,VWS V14.01,2013-08-29 13:05:00,
2013-08-29 07:10:00,52.6,48.8,29.98,SW,217,0.0,0.0,87,0.00,,CLR,0.00,VWS V14.01,2013-08-29 13:10:00,
2013-08-29 07:15:00,52.8,49.0,29.98,SW,217,0.0,0.0,87,0.00,,CLR,0.00,VWS V14.01,2013-08-29 13:15:00,
2013-08-29 07:20:00,52.8,48.7,30.00,SW,217,0.0,0.0,86,0.00,,CLR,0.00,VWS V14.01,2013-08-29 13:20:00,
2013-08-29 07:25:00,52.8,48.7,30.00,SW,217,0.0,0.0,86,0.00,,CLR,0.00,VWS V14.01,2013-08-29 13:25:00,
2013-08-29 07:30:00,52.9,49.1,30.00,SW,217,0.0,0.0,87,0.00,,CLR,0.00,VWS V14.01,2013-08-29 13:30:00,
2013-08-29 07:35:00,52.9,49.1,30.00,SW,217,0.0,0.0,87,0.00,,CLR,0.00,VWS V14.01,2013-08-29 13:35:00,
2013-08-29 07:40:00,53.1,49.3,30.00,SW,217,0.0,0.0,87,0.00,,CLR,0.00,VWS V14.01,2013-08-29 13:40:00,
2013-08-29 07:45:00,53.2,49.4,30.00,SW,217,0.0,0.0,87,0.00,,CLR,0.00,VWS V14.01,2013-08-29 13:45:00,
2013-08-29 07:50:00,53.3,49.8,30.00,SW,217,0.0,0.0,88,0.00,,CLR,0.00,VWS V14.01,2013-08-29 13:50:00,
2013-08-29 07:56:00,53.6,50.1,30.00,SW,217,0.0,0.0,88,0.00,,CLR,0.00,VWS V14.01,2013-08-29 13:56:00,
2013-08-29 08:01:00,53.6,50.1,30.00,SW,217,0.0,0.0,88,0.00,,CLR,0.00,VWS V14.01,2013-08-29 14:01:00,
2013-08-29 08:06:00,53.8,50.3,29.99,SW,217,0.0,0.0,88,0.00,,CLR,0.00,VWS V14.01,2013-08-29 14:06:00,
2013-08-29 08:11:00,54.1,50.9,29.99,SW,217,0.0,0.0,89,0.00,,CLR,0.00,VWS V14.01,2013-08-29 14:11:00,
2013-08-29 08:16:00,54.2,51.0,29.99,SW,217,0.0,0.0,89,0.00,,CLR,0.00,VWS V14.01,2013-08-29 14:16:00,
2013-08-29 08:21:00,54.4,51.2,30.00,SW,217,0.0,0.0,89,0.00,,CLR,0.00,VWS V14.01,2013-08-29 14:21:00,
2013-08-29 08:26:00,54.7,51.5,30.00,SW,217,0.0,0.0,89,0.00,,CLR,0.00,VWS V14.01,2013-08-29 14:26:00,
2013-08-29 08:31:00,55.0,51.8,30.00,SW,217,0.0,0.0,89,0.00,,CLR,0.00,VWS V14.01,2013-08-29 14:31:00,
2013-08-29 08:36:00,55.3,51.8,30.00,SW,217,0.0,0.0,88,0.00,,CLR,0.00,VWS V14.01,2013-08-29 14:36:00,
2013-08-29 08:41:00,55.6,51.8,30.00,SW,217,0.0,0.0,87,0.00,,CLR,0.00,VWS V14.01,2013-08-29 14:41:00,
2013-08-29 08:46:00,55.7,51.9,30.00,SW,217,0.0,0.0,87,0.00,,CLR,0.00,VWS V14.01,2013-08-29 14:46:00,
2013-08-29 08:51:00,56.0,51.6,30.00,SW,217,0.0,0.0,85,0.00,,CLR,0.00,VWS V14.01,2013-08-29 14:51:00,
2013-08-29 08:56:00,56.3,51.5,30.00,West,280,0.0,0.0,84,0.00,,CLR,0.00,VWS V14.01,2013-08-29 14:56:00,
2013-08-29 09:01:00,56.5,51.7,29.99,West,280,0.0,0.0,84,0.00,,CLR,0.00,VWS V14.01,2013-08-29 15:01:00,
2013-08-29 09:06:00,56.7,51.9,29.99,West,280,0.0,1.0,84,0.00,,CLR,0.00,VWS V14.01,2013-08-29 15:06:00,
2013-08-29 09:11:00,56.9,52.1,29.99,West,280,0.0,0.0,84,0.00,,CLR,0.00,VWS V14.01,2013-08-29 15:11:00,
2013-08-29 09:16:00,57.0,51.9,29.99,West,280,0.0,0.0,83,0.00,,CLR,0.00,VWS V14.01,2013-08-29 15:16:00,
2013-08-29 09:21:00,57.2,52.1,29.99,West,280,0.0,0.0,83,0.00,,CLR,0.00,VWS V14.01,2013-08-29 15:21:00,
2013-08-29 09:26:00,57.3,52.2,29.99,West,280,0.0,1.0,83,0.00,,CLR,0.00,VWS V14.01,2013-08-29 15:26:00,
2013-08-29 09:32:00,57.6,52.5,29.98,West,280,0.0,0.0,83,0.00,,CLR,0.00,VWS V14.01,2013-08-29 15:32:00,
2013-08-29 09:37:00,58.0,52.2,29.98,West,280,0.0,1.0,81,0.00,,CLR,0.00,VWS V14.01,2013-08-29 15:37:00,
2013-08-29 09:42:00,58.1,52.6,29.98,West,280,0.0,0.0,82,0.00,,CLR,0.00,VWS V14.01,2013-08-29 15:42:00,
2013-08-29 09:47:00,58.4,52.6,29.98,NW,322,0.0,1.0,81,0.00,,CLR,0.00,VWS V14.01,2013-08-29 15:47:00,
2013-08-29 09:52:00,58.6,52.5,29.98,NW,321,0.0,0.0,80,0.00,,CLR,0.00,VWS V14.01,2013-08-29 15:52:00,
2013-08-29 09:57:00,58.9,52.8,29.98,NW,321,0.0,0.0,80,0.00,,CLR,0.00,VWS V14.01,2013-08-29 15:57:00,
2013-08-29 10:02:00,59.2,52.7,29.98,WNW,295,1.0,2.0,79,0.00,,CLR,0.00,VWS V14.01,2013-08-29 16:02:00,
2013-08-29 10:07:00,59.6,53.4,29.98,WSW,254,0.0,1.0,80,0.00,,CLR,0.00,VWS V14.01,2013-08-29 16:07:00,
2013-08-29 10:12:00,60.1,53.6,29.98,WSW,254,0.0,0.0,79,0.00,,CLR,0.00,VWS V14.01,2013-08-29 16:12:00,
2013-08-29 10:17:00,60.4,53.5,29.98,West,274,0.0,0.0,78,0.00,,CLR,0.00,VWS V14.01,2013-08-29 16:17:00,
2013-08-29 10:22:00,60.9,54.0,29.98,West,275,1.0,1.0,78,0.00,,CLR,0.00,VWS V14.01,2013-08-29 16:22:00,
2013-08-29 10:27:00,61.3,53.3,29.98,West,264,0.0,1.0,75,0.00,,CLR,0.00,VWS V14.01,2013-08-29 16:27:00,
2013-08-29 10:32:00,62.0,54.0,29.97,West,269,0.0,0.0,75,0.00,,CLR,0.00,VWS V14.01,2013-08-29 16:32:00,
2013-08-29 10:37:00,62.4,53.6,29.97,West,270,0.0,0.0,73,0.00,,CLR,0.00,VWS V14.01,2013-08-29 16:37:00,
2013-08-29 10:42:00,62.9,54.1,29.97,NNE,17,0.0,1.0,73,0.00,,CLR,0.00,VWS V14.01,2013-08-29 16:42:00,
2013-08-29 10:47:00,63.5,53.9,29.96,NNE,15,0.0,3.0,71,0.00,,CLR,0.00,VWS V14.01,2013-08-29 16:47:00,
2013-08-29 10:52:00,64.3,54.3,29.96,West,269,0.0,0.0,70,0.00,,CLR,0.00,VWS V14.01,2013-08-29 16:52:00,
2013-08-29 10:57:00,64.8,53.2,29.96,NNW,336,0.0,0.0,66,0.00,,CLR,0.00,VWS V14.01,2013-08-29 16:57:00,
2013-08-29 11:02:00,65.8,54.5,29.94,West,281,0.0,2.0,67,0.00,,CLR,0.00,VWS V14.01,2013-08-29 17:02:00,
2013-08-29 11:07:00,66.6,54.9,29.94,WNW,294,0.0,0.0,66,0.00,,CLR,0.00,VWS V14.01,2013-08-29 17:07:00,
2013-08-29 11:13:00,67.6,54.1,29.94,North,5,0.0,0.0,62,0.00,,CLR,0.00,VWS V14.01,2013-08-29 17:13:00,
2013-08-29 11:18:00,68.4,54.9,29.94,WSW,255,0.0,1.0,62,0.00,,CLR,0.00,VWS V14.01,2013-08-29 17:18:00,
2013-08-29 11:23:00,69.3,54.8,29.94,North,355,0.0,1.0,60,0.00,,CLR,0.00,VWS V14.01,2013-08-29 17:23:00,
2013-08-29 11:28:00,69.6,55.1,29.94,WSW,240,0.0,0.0,60,0.00,,CLR,0.00,VWS V14.01,2013-08-29 17:28:00,
2013-08-29 11:33:00,70.3,54.8,29.92,NNW,344,0.0,0.0,58,0.00,,CLR,0.00,VWS V14.01,2013-08-29 17:33:00,
2013-08-29 11:38:00,70.9,55.4,29.92,North,5,0.0,0.0,58,0.00,,CLR,0.00,VWS V14.01,2013-08-29 17:38:00,
2013-08-29 11:43:00,71.6,54.6,29.92,NNW,347,0.0,4.0,55,0.00,,CLR,0.00,VWS V14.01,2013-08-29 17:43:00,
2013-08-29 11:48:00,72.3,55.2,29.91,NNE,20,0.0,2.0,55,0.00,,CLR,0.00,VWS V14.01,2013-08-29 17:48:00,
2013-08-29 11:53:00,72.7,55.1,29.91,NNE,21,0.0,1.0,54,0.00,,CLR,0.00,VWS V14.01,2013-08-29 17:53:00,
2013-08-29 11:58:00,73.0,56.9,29.91,WNW,289,0.0,3.0,57,0.00,,CLR,0.00,VWS V14.01,2013-08-29 17:58:00,
2013-08-29 12:03:00,73.2,56.6,29.90,WNW,285,0.0,1.0,56,0.00,,CLR,0.00,VWS V14.01,2013-08-29 18:03:00,
2013-08-29 12:08:00,73.5,54.8,29.90,WSW,248,1.0,3.0,52,0.00,,CLR,0.00,VWS V14.01,2013-08-29 18:08:00,
2013-08-29 12:13:00,73.9,55.2,29.90,NNW,331,0.0,1.0,52,0.00,,CLR,0.00,VWS V14.01,2013-08-29 18:13:00,
2013-08-29 12:18:00,74.2,54.9,29.88,NE,34,0.0,1.0,51,0.00,,CLR,0.00,VWS V14.01,2013-08-29 18:18:00,
2013-08-29 12:23:00,74.4,55.7,29.88,SE,128,0.0,1.0,52,0.00,,CLR,0.00,VWS V14.01,2013-08-29 18:23:00,
2013-08-29 12:28:00,75.1,54.7,29.88,ESE,112,0.0,1.0,49,0.00,,CLR,0.00,VWS V14.01,2013-08-29 18:28:00,
2013-08-29 12:33:00,75.8,54.2,29.88,North,355,0.0,3.0,47,0.00,,CLR,0.00,VWS V14.01,2013-08-29 18:33:00,
2013-08-29 12:38:00,76.1,55.6,29.88,West,270,1.0,2.0,49,0.00,,CLR,0.00,VWS V14.01,2013-08-29 18:38:00,
2013-08-29 12:43:00,76.3,54.6,29.88,NNW,343,0.0,2.0,47,0.00,,CLR,0.00,VWS V14.01,2013-08-29 18:43:00,
2013-08-29 12:48:00,76.5,55.9,29.86,NW,313,0.0,2.0,49,0.00,,CLR,0.00,VWS V14.01,2013-08-29 18:48:00,
2013-08-29 12:53:00,76.7,55.0,29.86,West,262,1.0,3.0,47,0.00,,CLR,0.00,VWS V14.01,2013-08-29 18:53:00,
2013-08-29 12:58:00,77.0,55.2,29.86,NE,56,1.0,1.0,47,0.00,,CLR,0.00,VWS V14.01,2013-08-29 18:58:00,
2013-08-29 13:04:00,77.9,56.1,29.86,NE,49,0.0,0.0,47,0.00,,CLR,0.00,VWS V14.01,2013-08-29 19:04:00,
2013-08-29 13:09:00,78.8,56.9,29.86,East,82,1.0,1.0,47,0.00,,CLR,0.00,VWS V14.01,2013-08-29 19:09:00,
2013-08-29 13:14:00,80.1,57.5,29.86,NNW,329,2.0,6.0,46,0.00,,CLR,0.00,VWS V14.01,2013-08-29 19:14:00,
2013-08-29 13:19:00,81.1,57.2,29.83,North,355,0.0,1.0,44,0.00,,CLR,0.00,VWS V14.01,2013-08-29 19:19:00,
2013-08-29 13:24:00,81.6,58.2,29.83,ENE,69,1.0,1.0,45,0.00,,CLR,0.00,VWS V14.01,2013-08-29 19:24:00,
2013-08-29 13:29:00,82.2,56.2,29.83,West,277,0.0,2.0,41,0.00,,CLR,0.00,VWS V14.01,2013-08-29 19:29:00,
2013-08-29 13:34:00,83.0,55.5,29.82,SW,218,1.0,3.0,39,0.00,,CLR,0.00,VWS V14.01,2013-08-29 19:34:00,
2013-08-29 13:39:00,82.6,56.5,29.82,SSW,193,0.0,5.0,41,0.00,,CLR,0.00,VWS V14.01,2013-08-29 19:39:00,
2013-08-29 13:44:00,82.2,55.5,29.82,ENE,64,0.0,1.0,40,0.00,,CLR,0.00,VWS V14.01,2013-08-29 19:44:00,
2013-08-29 13:49:00,83.2,55.0,29.81,ENE,57,0.0,4.0,38,0.00,,CLR,0.00,VWS V14.01,2013-08-29 19:49:00,
2013-08-29 13:54:00,84.3,57.4,29.81,ENE,74,0.0,2.0,40,0.00,,CLR,0.00,VWS V14.01,2013-08-29 19:54:00,
2013-08-29 13:59:00,84.5,55.4,29.81,SW,229,3.0,6.0,37,0.00,,CLR,0.00,VWS V14.01,2013-08-29 19:59:00,
2013-08-29 14:04:00,84.1,55.8,29.81,West,267,2.0,7.0,38,0.00,,CLR,0.00,VWS V14.01,2013-08-29 20:04:00,
2013-08-29 14:09:00,83.8,54.0,29.81,WSW,239,1.0,4.0,36,0.00,,CLR,0.00,VWS V14.01,2013-08-29 20:09:00,
2013-08-29 14:15:00,83.8,55.5,29.81,East,91,0.0,2.0,38,0.00,,CLR,0.00,VWS V14.01,2013-08-29 20:15:00,
2013-08-29 14:20:00,84.9,55.0,29.81,WNW,301,1.0,5.0,36,0.00,,CLR,0.00,VWS V14.01,2013-08-29 20:20:00,
2013-08-29 14:25:00,84.1,55.8,29.81,SW,215,5.0,6.0,38,0.00,,CLR,0.00,VWS V14.01,2013-08-29 20:25:00,
2013-08-29 14:30:00,82.6,54.5,29.81,NW,304,1.0,6.0,38,0.00,,CLR,0.00,VWS V14.01,2013-08-29 20:30:00,
2013-08-29 14:35:00,82.2,54.8,29.82,South,188,1.0,1.0,39,0.00,,CLR,0.00,VWS V14.01,2013-08-29 20:35:00,
2013-08-29 14:40:00,82.0,53.2,29.82,WSW,242,3.0,6.0,37,0.00,,CLR,0.00,VWS V14.01,2013-08-29 20:40:00,
2013-08-29 14:45:00,82.0,53.9,29.82,West,263,4.0,4.0,38,0.00,,CLR,0.00,VWS V14.01,2013-08-29 20:45:00,
2013-08-29 14:50:00,81.6,51.3,29.81,ENE,76,2.0,10.0,35,0.00,,CLR,0.00,VWS V14.01,2013-08-29 20:50:00,
2013-08-29 14:55:00,82.0,53.2,29.81,NNE,17,0.0,2.0,37,0.00,,CLR,0.00,VWS V14.01,2013-08-29 20:55:00,
2013-08-29 15:00:00,83.4,52.9,29.81,ENE,78,0.0,3.0,35,0.00,,CLR,0.00,VWS V14.01,2013-08-29 21:00:00,
2013-08-29 15:05:00,84.7,49.9,29.80,West,274,0.0,3.0,30,0.00,,CLR,0.00,VWS V14.01,2013-08-29 21:05:00,
2013-08-29 15:10:00,85.3,53.8,29.80,North,355,0.0,3.0,34,0.00,,CLR,0.00,VWS V14.01,2013-08-29 21:10:00,
2013-08-29 15:15:00,86.1,56.0,29.80,WSW,251,4.0,4.0,36,0.00,,CLR,0.00,VWS V14.01,2013-08-29 21:15:00,
2013-08-29 15:20:00,86.1,53.7,29.79,WSW,252,0.0,4.0,33,0.00,,CLR,0.00,VWS V14.01,2013-08-29 21:20:00,
2013-08-29 15:25:00,86.3,53.8,29.79,WSW,258,0.0,3.0,33,0.00,,CLR,0.00,VWS V14.01,2013-08-29 21:25:00,
2013-08-29 15:30:00,87.8,48.7,29.79,WNW,293,0.0,4.0,26,0.00,,CLR,0.00,VWS V14.01,2013-08-29 21:30:00,
2013-08-29 15:36:00,88.4,49.2,29.78,ENE,57,0.0,1.0,26,0.00,,CLR,0.00,VWS V14.01,2013-08-29 21:36:00,
2013-08-29 15:41:00,88.2,44.6,29.78,NE,37,1.0,5.0,22,0.00,,CLR,0.00,VWS V14.01,2013-08-29 21:41:00,
2013-08-29 15:46:00,89.0,48.7,29.78,North,5,0.0,4.0,25,0.00,,CLR,0.00,VWS V14.01,2013-08-29 21:46:00,
2013-08-29 15:51:00,89.7,50.3,29.76,NNW,348,1.0,1.0,26,0.00,,CLR,0.00,VWS V14.01,2013-08-29 21:51:00,
2013-08-29 15:56:00,89.7,43.3,29.76,North,351,0.0,1.0,20,0.00,,CLR,0.00,VWS V14.01,2013-08-29 21:56:00,
2013-08-29 16:01:00,89.5,45.7,29.76,SE,133,0.0,1.0,22,0.00,,CLR,0.00,VWS V14.01,2013-08-29 22:01:00,
2013-08-29 16:06:00,88.6,46.1,29.76,SE,134,0.0,0.0,23,0.00,,CLR,0.00,VWS V14.01,2013-08-29 22:06:00,
2013-08-29 16:11:00,88.4,54.0,29.76,ENE,63,0.0,1.0,31,0.00,,CLR,0.00,VWS V14.01,2013-08-29 22:11:00,
2013-08-29 16:16:00,88.0,46.7,29.76,NE,49,0.0,3.0,24,0.00,,CLR,0.00,VWS V14.01,2013-08-29 22:16:00,
2013-08-29 16:21:00,88.2,48.0,29.76,NE,49,0.0,0.0,25,0.00,,CLR,0.00,VWS V14.01,2013-08-29 22:21:00,
2013-08-29 16:26:00,88.6,44.9,29.76,ENE,63,0.0,4.0,22,0.00,,CLR,0.00,VWS V14.01,2013-08-29 22:26:00,
2013-08-29 16:31:00,88.8,43.9,29.75,NNE,16,0.0,8.0,21,0.00,,CLR,0.00,VWS V14.01,2013-08-29 22:31:00,
2013-08-29 16:36:00,88.8,43.9,29.75,NNE,30,0.0,4.0,21,0.00,,CLR,0.00,VWS V14.01,2013-08-29 22:36:00,
2013-08-29 16:41:00,88.4,44.8,29.75,NNE,28,0.0,2.0,22,0.00,,CLR,0.00,VWS V14.01,2013-08-29 22:41:00,
2013-08-29 16:46:00,88.2,48.0,29.74,North,360,2.0,2.0,25,0.00,,CLR,0.00,VWS V14.01,2013-08-29 22:46:00,
2013-08-29 16:51:00,88.6,49.4,29.74,ENE,70,1.0,10.0,26,0.00,,CLR,0.00,VWS V14.01,2013-08-29 22:51:00,
2013-08-29 16:56:00,89.7,42.0,29.74,NNW,344,3.0,4.0,19,0.00,,CLR,0.00,VWS V14.01,2013-08-29 22:56:00,
2013-08-29 17:01:00,90.7,42.8,29.73,WSW,247,2.0,6.0,19,0.00,,CLR,0.00,VWS V14.01,2013-08-29 23:01:00,
2013-08-29 17:06:00,91.2,45.8,29.73,NNE,20,3.0,9.0,21,0.00,,CLR,0.00,VWS V14.01,2013-08-29 23:06:00,
2013-08-29 17:11:00,91.4,42.0,29.73,WNW,300,0.0,8.0,18,0.00,,CLR,0.00,VWS V14.01,2013-08-29 23:11:00,
2013-08-29 17:17:00,91.2,41.8,29.74,NNE,18,0.0,4.0,18,0.00,,CLR,0.00,VWS V14.01,2013-08-29 23:17:00,
2013-08-29 17:22:00,90.7,42.8,29.74,North,360,0.0,4.0,19,0.00,,CLR,0.00,VWS V14.01,2013-08-29 23:22:00,
2013-08-29 17:27:00,89.7,44.6,29.74,NNE,28,0.0,5.0,21,0.00,,CLR,0.00,VWS V14.01,2013-08-29 23:27:00,
2013-08-29 17:32:00,88.6,41.1,29.74,NNW,327,1.0,6.0,19,0.00,,CLR,0.00,VWS V14.01,2013-08-29 23:32:00,
2013-08-29 17:37:00,87.6,42.9,29.74,ENE,60,2.0,2.0,21,0.00,,CLR,0.00,VWS V14.01,2013-08-29 23:37:00,
2013-08-29 17:42:00,87.0,43.6,29.74,NE,37,0.0,4.0,22,0.00,,CLR,0.00,VWS V14.01,2013-08-29 23:42:00,
2013-08-29 17:47:00,86.1,42.8,29.75,WNW,300,1.0,3.0,22,0.00,,CLR,0.00,VWS V14.01,2013-08-29 23:47:00,
2013-08-29 17:52:00,85.5,48.7,29.75,NW,305,1.0,1.0,28,0.00,,CLR,0.00,VWS V14.01,2013-08-29 23:52:00,
2013-08-29 17:57:00,85.3,43.3,29.75,NNW,342,0.0,4.0,23,0.00,,CLR,0.00,VWS V14.01,2013-08-29 23:57:00,
2013-08-29 18:02:00,85.1,44.3,29.76,NE,47,0.0,1.0,24,0.00,,CLR,0.00,VWS V14.01,2013-08-30 00:02:00,
2013-08-29 18:07:00,84.7,47.1,29.76,NE,47,0.0,0.0,27,0.00,,CLR,0.00,VWS V14.01,2013-08-30 00:07:00,
2013-08-29 18:12:00,84.1,45.5,29.76,NNE,28,0.0,3.0,26,0.00,,CLR,0.00,VWS V14.01,2013-08-30 00:12:00,
2013-08-29 18:17:00,83.6,44.1,29.77,NNE,20,0.0,0.0,25,0.00,,CLR,0.00,VWS V14.01,2013-08-30 00:17:00,
2013-08-29 18:22:00,83.4,46.0,29.77,NNE,20,0.0,0.0,27,0.00,,CLR,0.00,VWS V14.01,2013-08-30 00:22:00,
2013-08-29 18:27:00,82.6,45.3,29.77,NNE,20,0.0,0.0,27,0.00,,CLR,0.00,VWS V14.01,2013-08-30 00:27:00,
2013-08-29 18:32:00,81.8,45.5,29.78,NNE,20,0.0,0.0,28,0.00,,CLR,0.00,VWS V14.01,2013-08-30 00:32:00,
2013-08-29 18:37:00,81.1,47.6,29.78,NNE,20,0.0,0.0,31,0.00,,CLR,0.00,VWS V14.01,2013-08-30 00:37:00,
2013-08-29 18:42:00,80.3,48.6,29.78,NNE,20,0.0,0.0,33,0.00,,CLR,0.00,VWS V14.01,2013-08-30 00:42:00,
2013-08-29 18:47:00,79.8,49.0,29.78,NNE,20,0.0,0.0,34,0.00,,CLR,0.00,VWS V14.01,2013-08-30 00:47:00,
2013-08-29 18:52:00,79.4,48.6,29.78,NNE,20,0.0,0.0,34,0.00,,CLR,0.00,VWS V14.01,2013-08-30 00:52:00,
2013-08-29 18:58:00,79.2,50.7,29.78,NNE,20,0.0,0.0,37,0.00,,CLR,0.00,VWS V14.01,2013-08-30 00:58:00,
2013-08-29 19:03:00,78.8,46.5,29.79,NNE,20,0.0,0.0,32,0.00,,CLR,0.00,VWS V14.01,2013-08-30 01:03:00,
2013-08-29 19:08:00,78.6,49.4,29.79,NNE,20,0.0,0.0,36,0.00,,CLR,0.00,VWS V14.01,2013-08-30 01:08:00,
2013-08-29 19:13:00,78.3,48.4,29.79,NNE,20,0.0,0.0,35,0.00,,CLR,0.00,VWS V14.01,2013-08-30 01:13:00,
2013-08-29 19:18:00,78.1,49.7,29.79,NNE,20,0.0,0.0,37,0.00,,CLR,0.00,VWS V14.01,2013-08-30 01:18:00,
2013-08-29 19:23:00,77.9,47.3,29.79,NNE,20,0.0,0.0,34,0.00,,CLR,0.00,VWS V14.01,2013-08-30 01:23:00,
2013-08-29 19:28:00,77.6,47.8,29.79,NNE,20,0.0,0.0,35,0.00,,CLR,0.00,VWS V14.01,2013-08-30 01:28:00,
2013-08-29 19:33:00,77.2,48.2,29.79,NNE,20,0.0,0.0,36,0.00,,CLR,0.00,VWS V14.01,2013-08-30 01:33:00,
2013-08-29 19:38:00,77.0,47.3,29.79,NNE,24,2.0,2.0,35,0.00,,CLR,0.00,VWS V14.01,2013-08-30 01:38:00,
2013-08-29 19:43:00,76.8,48.6,29.79,NE,55,0.0,0.0,37,0.00,,CLR,0.00,VWS V14.01,2013-08-30 01:43:00,
2013-08-29 19:48:00,76.8,47.1,29.79,NE,56,0.0,1.0,35,0.00,,CLR,0.00,VWS V14.01,2013-08-30 01:48:00,
2013-08-29 19:53:00,77.0,48.0,29.79,NE,55,0.0,0.0,36,0.00,,CLR,0.00,VWS V14.01,2013-08-30 01:53:00,
2013-08-29 19:58:00,77.2,51.0,29.79,WNW,301,0.0,3.0,40,0.00,,CLR,0.00,VWS V14.01,2013-08-30 01:58:00,
2013-08-29 20:03:00,77.2,48.9,29.83,ESE,105,0.0,5.0,37,0.00,,CLR,0.00,VWS V14.01,2013-08-30 02:03:00,
2013-08-29 20:09:00,77.2,46.7,29.83,North,5,1.0,1.0,34,0.00,,CLR,0.00,VWS V14.01,2013-08-30 02:09:00,
2013-08-29 20:14:00,77.2,50.3,29.83,NW,325,0.0,0.0,39,0.00,,CLR,0.00,VWS V14.01,2013-08-30 02:14:00,
2013-08-29 20:19:00,76.7,48.5,29.80,NNW,327,0.0,0.0,37,0.00,,CLR,0.00,VWS V14.01,2013-08-30 02:19:00,
2013-08-29 20:24:00,76.0,47.2,29.80,NNW,327,0.0,0.0,36,0.00,,CLR,0.00,VWS V14.01,2013-08-30 02:24:00,
2013-08-29 20:29:00,75.4,45.9,29.80,NNW,327,0.0,0.0,35,0.00,,CLR,0.00,VWS V14.01,2013-08-30 02:29:00,
2013-08-29 20:34:00,74.9,49.0,29.83,NW,323,0.0,1.0,40,0.00,,CLR,0.00,VWS V14.01,2013-08-30 02:34:00,
2013-08-29 20:39:00,74.9,43.1,29.83,NNW,346,0.0,0.0,32,0.00,,CLR,0.00,VWS V14.01,2013-08-30 02:39:00,
2013-08-29 20:44:00,75.1,44.1,29.83,NE,49,0.0,1.0,33,0.00,,CLR,0.00,VWS V14.01,2013-08-30 02:44:00,
2013-08-29 20:49:00,75.1,44.8,29.86,NE,49,0.0,0.0,34,0.00,,CLR,0.00,VWS V14.01,2013-08-30 02:49:00,
2013-08-29 20:54:00,75.1,47.1,29.86,NE,35,0.0,0.0,37,0.00,,CLR,0.00,VWS V14.01,2013-08-30 02:54:00,
2013-08-29 20:59:00,74.7,42.1,29.86,North,355,0.0,1.0,31,0.00,,CLR,0.00,VWS V14.01,2013-08-30 02:59:00,
2013-08-29 21:04:00,74.6,44.4,29.88,NE,51,0.0,2.0,34,0.00,,CLR,0.00,VWS V14.01,2013-08-30 03:04:00,
2013-08-29 21:09:00,74.4,46.5,29.88,NE,51,0.0,0.0,37,0.00,,CLR,0.00,VWS V14.01,2013-08-30 03:09:00,
2013-08-29 21:14:00,73.9,45.3,29.88,NE,41,0.0,0.0,36,0.00,,CLR,0.00,VWS V14.01,2013-08-30 03:14:00,
2013-08-29 21:19:00,73.5,45.7,29.86,ENE,65,0.0,0.0,37,0.00,,CLR,0.00,VWS V14.01,2013-08-30 03:19:00,
2013-08-29 21:24:00,72.8,47.8,29.86,NE,38,0.0,1.0,41,0.00,,CLR,0.00,VWS V14.01,2013-08-30 03:24:00,
2013-08-29 21:30:00,72.1,47.8,29.86,NE,38,0.0,0.0,42,0.00,,CLR,0.00,VWS V14.01,2013-08-30 03:30:00,
2013-08-29 21:35:00,71.5,48.5,29.87,NE,38,0.0,0.0,44,0.00,,CLR,0.00,VWS V14.01,2013-08-30 03:35:00,
2013-08-29 21:40:00,70.9,46.0,29.87,North,9,0.0,3.0,41,0.00,,CLR,0.00,VWS V14.01,2013-08-30 03:40:00,
2013-08-29 21:45:00,70.6,45.8,29.87,North,355,0.0,1.0,41,0.00,,CLR,0.00,VWS V14.01,2013-08-30 03:45:00,
2013-08-29 21:50:00,70.1,48.4,29.88,North,355,0.0,0.0,46,0.00,,CLR,0.00,VWS V14.01,2013-08-30 03:50:00,
2013-08-29 21:55:00,69.6,47.3,29.88,NNE,28,0.0,2.0,45,0.00,,CLR,0.00,VWS V14.01,2013-08-30 03:55:00,
2013-08-29 22:00:00,69.3,47.1,29.88,NNW,333,0.0,0.0,45,0.00,,CLR,0.00,VWS V14.01,2013-08-30 04:00:00,
2013-08-29 22:01:00,69.3,48.2,29.88,North,360,0.0,1.0,47,0.00,,CLR,0.00,VWS V14.01,2013-08-30 04:01:00,
2013-08-29 22:02:00,69.3,47.1,29.89,North,360,0.0,3.0,45,0.00,,CLR,0.00,VWS V14.01,2013-08-30 04:02:00,
2013-08-29 22:03:00,69.1,46.9,29.89,NNW,348,0.0,2.0,45,0.00,,CLR,0.00,VWS V14.01,2013-08-30 04:03:00,
2013-08-29 22:07:00,69.1,47.5,29.89,NE,55,0.0,3.0,46,0.00,,CLR,0.00,VWS V14.01,2013-08-30 04:07:00,
2013-08-29 22:12:00,69.1,48.0,29.89,NNE,19,2.0,2.0,47,0.00,,CLR,0.00,VWS V14.01,2013-08-30 04:12:00,
2013-08-29 22:17:00,69.1,48.0,29.86,NW,325,1.0,4.0,47,0.00,,CLR,0.00,VWS V14.01,2013-08-30 04:17:00,
2013-08-29 22:22:00,68.9,47.9,29.86,ENE,57,1.0,5.0,47,0.00,,CLR,0.00,VWS V14.01,2013-08-30 04:22:00,
2013-08-29 22:27:00,68.8,47.8,29.86,NE,34,2.0,2.0,47,0.00,,CLR,0.00,VWS V14.01,2013-08-30 04:27:00,
2013-08-29 22:32:00,68.8,47.8,29.86,NNE,24,0.0,0.0,47,0.00,,CLR,0.00,VWS V14.01,2013-08-30 04:32:00,
2013-08-29 22:37:00,68.6,48.7,29.86,NE,38,0.0,1.0,49,0.00,,CLR,0.00,VWS V14.01,2013-08-30 04:37:00,
2013-08-29 22:42:00,68.3,49.0,29.86,ENE,63,0.0,0.0,50,0.00,,CLR,0.00,VWS V14.01,2013-08-30 04:42:00,
2013-08-29 22:47:00,67.8,49.0,29.86,ENE,63,0.0,0.0,51,0.00,,CLR,0.00,VWS V14.01,2013-08-30 04:47:00,
2013-08-29 22:52:00,67.1,48.9,29.86,ENE,63,0.0,0.0,52,0.00,,CLR,0.00,VWS V14.01,2013-08-30 04:52:00,
2013-08-29 22:57:00,66.6,49.0,29.86,ENE,63,0.0,0.0,53,0.00,,CLR,0.00,VWS V14.01,2013-08-30 04:57:00,
2013-08-29 23:02:00,66.1,48.5,29.87,ENE,63,0.0,0.0,53,0.00,,CLR,0.00,VWS V14.01,2013-08-30 05:02:00,
2013-08-29 23:08:00,65.6,48.5,29.87,ENE,63,0.0,0.0,54,0.00,,CLR,0.00,VWS V14.01,2013-08-30 05:08:00,
2013-08-29 23:13:00,65.2,48.6,29.87,SSW,213,0.0,0.0,55,0.00,,CLR,0.00,VWS V14.01,2013-08-30 05:13:00,
2013-08-29 23:18:00,65.0,48.5,29.86,NE,40,0.0,1.0,55,0.00,,CLR,0.00,VWS V14.01,2013-08-30 05:18:00,
2013-08-29 23:23:00,65.0,48.5,29.86,East,83,0.0,0.0,55,0.00,,CLR,0.00,VWS V14.01,2013-08-30 05:23:00,
2013-08-29 23:28:00,64.8,49.7,29.86,East,83,0.0,0.0,58,0.00,,CLR,0.00,VWS V14.01,2013-08-30 05:28:00,
2013-08-29 23:33:00,64.5,49.0,29.87,East,83,0.0,0.0,57,0.00,,CLR,0.00,VWS V14.01,2013-08-30 05:33:00,
2013-08-29 23:38:00,64.2,49.1,29.87,East,83,0.0,0.0,58,0.00,,CLR,0.00,VWS V14.01,2013-08-30 05:38:00,
2013-08-29 23:43:00,63.9,48.8,29.87,East,83,0.0,0.0,58,0.00,,CLR,0.00,VWS V14.01,2013-08-30 05:43:00,
2013-08-29 23:48:00,63.9,48.4,29.87,East,83,0.0,0.0,57,0.00,,CLR,0.00,VWS V14.01,2013-08-30 05:48:00,
2013-08-29 23:53:00,63.7,49.1,29.87,East,83,0.0,0.0,59,0.00,,CLR,0.00,VWS V14.01,2013-08-30 05:53:00,
2013-08-29 23:58:00,63.4,48.8,29.87,East,83,0.0,0.0,59,0.00,,CLR,0.00,VWS V14.01,2013-08-30 05:58:00,